Total_Precipitation_Accumulation
0.73 0.82 1.10 0.98 0.85 0.75 0.69 0.69 0.70 0.66 0.66 0.60 0.55 0.51 0.49 0.47 0.51 0.58 0.62 0.71 0.80 0.87 0.99 1.08 1.12 1.16 1.18 1.15 1.18 1.17 1.09 1.12 1.25 1.40 1.45 1.45 1.56 1.72 1.96 2.13 1.96 1.35 1.32
0.34 0.47 0.88 0.83 0.69 0.64 0.60 0.63 0.64 0.63 0.60 0.56 0.53 0.51 0.56 0.55 0.53 0.65 0.75 0.81 0.83 0.95 0.99 0.98 1.04 1.04 1.04 1.01 1.03 1.13 1.09 1.26 1.50 1.86 1.96 1.77 1.90 1.93 1.94 1.88 1.87 1.36 1.38
0.19 0.27 0.50 0.70 0.59 0.55 0.57 0.57 0.61 0.56 0.53 0.54 0.55 0.55 0.58 0.58 0.57 0.61 0.68 0.72 0.82 0.95 0.95 0.89 0.95 0.90 0.88 0.96 0.98 1.07 1.18 1.48 1.85 2.37 2.64 1.97 1.57 1.91 1.83 1.72 1.60 1.28 1.24
0.15 0.15 0.19 0.44 0.53 0.51 0.53 0.53 0.55 0.55 0.54 0.54 0.62 0.56 0.54 0.60 0.66 0.69 0.64 0.66 0.76 0.85 0.82 0.84 0.77 0.84 0.85 0.91 1.02 1.16 1.36 1.60 2.05 2.53 2.54 1.67 1.18 1.44 1.54 1.38 1.33 1.24 1.23
0.16 0.13 0.21 0.37 0.41 0.44 0.51 0.51 0.51 0.57 0.64 0.64 0.64 0.53 0.56 0.60 0.71 0.77 0.71 0.73 0.78 0.81 0.82 0.86 0.80 0.91 0.84 0.89 0.99 1.15 1.42 1.69 2.04 2.15 1.69 1.70 1.67 1.47 1.25 1.17 1.28 1.40 1.25
0.26 0.19 0.25 0.38 0.40 0.41 0.47 0.48 0.49 0.58 0.68 0.65 0.64 0.59 0.60 0.61 0.72 0.72 0.73 0.80 0.79 0.85 0.93 0.98 0.91 0.93 0.88 0.86 0.94 1.09 1.28 1.60 1.71 1.25 1.09 1.39 1.52 1.49 1.36 1.34 1.34 1.32 1.17
0.41 0.42 0.40 0.48 0.47 0.45 0.45 0.49 0.49 0.55 0.63 0.68 0.66 0.61 0.62 0.64 0.72 0.74 0.75 0.78 0.76 0.87 0.99 1.06 1.01 0.95 0.95 0.99 1.04 1.13 1.26 1.48 1.32 0.99 1.07 1.38 1.42 1.38 1.58 1.66 1.51 1.25 1.06
0.80 0.77 0.75 0.70 0.62 0.58 0.54 0.57 0.57 0.58 0.57 0.63 0.67 0.64 0.62 0.66 0.68 0.69 0.73 0.76 0.76 0.81 0.92 0.99 0.98 0.94 0.96 1.00 1.04 1.05 1.19 1.19 0.90 0.94 1.10 1.23 1.11 1.22 1.59 1.79 1.65 1.46 1.22
1.15 1.08 0.92 0.78 0.70 0.66 0.72 0.69 0.64 0.60 0.59 0.61 0.67 0.63 0.60 0.63 0.60 0.60 0.70 0.77 0.75 0.80 0.89 0.93 0.90 0.95 0.92 0.92 0.97 1.00 1.16 1.16 0.96 1.12 1.10 1.17 1.07 1.22 1.45 1.60 1.53 1.43 1.28
1.57 1.39 1.10 0.92 0.93 0.78 0.73 0.76 0.72 0.65 0.65 0.67 0.70 0.68 0.72 0.75 0.73 0.77 0.80 0.90 0.86 0.85 0.87 0.94 0.99 0.97 0.97 0.97 0.97 1.08 1.20 1.12 0.90 1.05 1.27 1.11 1.14 1.35 1.46 1.46 1.49 1.47 1.33
1.98 1.57 1.19 1.10 1.18 1.06 0.88 0.80 0.97 0.90 0.86 0.90 0.98 0.99 1.21 1.52 1.26 1.23 1.02 1.13 1.09 1.09 1.13 1.22 1.27 1.27 1.22 1.11 1.15 1.30 1.23 1.11 1.21 1.34 1.54 1.17 1.17 1.44 1.60 1.64 1.57 1.47 1.37
1.94 1.90 1.57 1.34 1.27 1.29 1.13 1.13 1.53 1.49 1.43 1.58 1.66 1.61 1.97 1.98 1.76 1.27 1.23 1.54 1.53 1.60 1.69 1.91 2.04 1.82 1.51 1.33 1.51 1.94 1.45 1.25 1.39 1.43 1.47 1.29 1.37 1.73 1.87 1.84 1.61 1.39 1.32
1.92 1.84 1.90 1.73 1.56 1.53 1.64 1.53 1.67 1.89 1.95 2.06 1.99 2.00 2.23 1.89 1.62 1.44 1.63 1.99 2.02 2.06 2.12 2.34 2.49 1.96 1.97 2.28 2.35 2.26 1.97 1.77 1.73 1.80 1.77 1.75 1.82 2.09 2.13 2.08 1.88 1.62 1.43
2.17 2.07 2.33 2.26 2.15 2.15 2.01 1.97 1.79 1.75 1.78 1.88 1.98 1.93 2.08 2.10 1.98 1.97 2.10 2.16 2.30 2.44 2.69 2.55 2.69 2.65 2.72 2.57 2.56 2.59 2.47 2.31 2.15 2.31 2.63 2.46 2.34 2.37 2.52 2.32 2.03 1.93 1.80
2.61 2.68 2.85 2.89 2.98 2.79 2.54 2.32 1.92 1.90 1.80 1.75 1.81 1.81 2.02 2.27 2.32 2.43 2.23 2.26 2.05 2.17 2.52 2.82 2.84 3.03 3.16 3.02 2.65 2.43 2.46 2.42 2.19 2.17 2.44 2.62 2.63 2.52 2.61 2.58 2.30 2.18 2.13
3.27 3.45 3.45 3.47 3.50 3.31 2.90 2.64 2.34 2.03 2.03 1.83 1.80 1.88 2.34 2.56 2.52 2.60 2.48 2.43 2.12 2.12 2.44 2.81 2.88 3.17 3.19 3.20 2.70 2.36 2.29 2.29 2.08 1.99 2.08 2.48 2.47 2.32 2.34 2.54 2.59 2.53 2.43
3.99 4.15 4.33 4.23 3.94 3.91 3.56 2.88 2.38 2.10 1.92 1.98 2.09 2.15 2.39 2.56 2.74 2.90 2.81 2.45 2.21 2.28 2.48 2.52 2.66 3.14 3.01 2.96 2.79 2.69 2.63 2.40 2.15 2.06 1.98 2.13 2.05 2.16 2.25 2.33 2.52 2.72 2.75
4.57 4.97 5.16 4.78 4.66 4.62 4.26 3.65 3.09 2.77 2.54 2.51 2.49 2.31 2.12 2.34 2.46 2.68 2.45 2.07 2.15 2.35 2.50 2.51 2.53 2.91 3.03 3.04 3.02 2.87 2.72 2.48 2.12 1.98 1.93 1.86 1.85 1.67 1.92 2.15 2.39 2.64 2.94
4.88 5.59 5.97 6.12 5.61 5.20 4.60 4.13 3.61 3.26 3.04 2.79 2.49 2.22 1.94 1.77 1.69 1.91 1.88 1.80 1.81 2.06 2.11 1.87 2.11 2.42 2.62 2.74 2.55 2.41 2.10 1.88 1.73 1.64 1.62 1.51 1.67 1.75 1.85 1.85 2.13 2.36 2.83
5.00 5.70 6.10 6.30 5.75 5.01 4.66 4.57 4.17 3.60 3.18 2.81 2.42 2.15 1.78 1.63 1.45 1.63 1.64 1.50 1.49 1.62 1.67 1.85 2.14 2.21 2.13 2.18 1.90 1.83 1.75 1.55 1.51 1.47 1.30 1.31 1.46 1.44 1.55 1.74 2.00 1.83 2.29
5.35 6.01 6.12 5.83 5.10 4.56 4.12 3.85 3.54 3.25 2.96 2.48 2.08 1.82 1.69 1.59 1.51 1.66 1.50 1.51 1.43 1.47 1.47 1.56 1.77 1.84 1.62 1.79 2.03 1.85 1.56 1.33 1.35 1.32 1.26 1.32 1.39 1.46 1.58 1.91 2.08 2.06 1.90
4.94 5.29 5.35 4.94 4.17 3.67 3.37 3.27 2.99 2.74 2.39 2.17 1.92 1.86 1.62 1.53 1.49 1.38 1.48 1.32 1.28 1.43 1.40 1.48 1.68 1.69 1.48 1.61 1.88 1.95 1.70 1.62 1.35 0.96 1.14 1.25 1.29 1.55 1.63 1.65 1.89 2.26 2.21
4.42 4.18 3.89 3.69 3.27 3.12 3.03 2.83 2.59 2.52 2.22 2.03 1.82 1.71 1.46 1.29 1.23 1.23 1.23 1.14 1.19 1.10 1.25 1.42 1.54 1.69 1.65 1.48 1.46 1.73 1.68 1.64 1.47 1.09 0.96 1.05 1.27 1.51 1.50 1.60 1.66 1.97 2.25
3.44 3.14 2.93 2.84 2.75 2.68 2.57 2.43 2.11 1.91 1.88 1.74 1.64 1.63 1.51 1.33 1.25 1.21 1.13 1.19 1.19 1.05 1.28 1.10 1.24 1.51 1.62 1.44 1.46 1.41 1.43 1.54 1.58 1.45 1.24 1.08 1.22 1.30 1.38 1.42 1.57 1.86 2.06
2.18 2.33 2.37 2.44 2.56 2.46 2.40 2.36 2.23 1.95 1.89 1.86 1.85 1.92 1.78 1.58 1.37 1.15 1.15 1.28 1.32 1.17 1.19 1.20 1.37 1.38 1.41 1.41 1.41 1.40 1.56 1.59 1.44 1.47 1.47 1.36 1.29 1.08 1.22 1.44 1.58 1.72 1.84
1.49 1.67 1.84 1.91 2.07 2.20 2.21 2.09 2.03 1.95 1.97 1.97 1.91 1.76 1.56 1.44 1.35 1.23 1.28 1.43 1.39 1.34 1.29 1.25 1.27 1.31 1.45 1.55 1.53 1.43 1.50 1.55 1.50 1.58 1.42 1.34 1.38 1.20 1.32 1.57 1.64 1.70 1.71